TimeEST,TemperatureF,Dew PointF,Humidity,Sea Level PressureIn,VisibilityMPH,Wind Direction,Wind SpeedMPH,Gust SpeedMPH,PrecipitationIn,Events,Conditions,WindDirDegrees,DateUTC
12:53 AM,36.0,27.0,70,30.00,10.0,SW,8.1,-,N/A,,Clear,220,2013-01-08 05:53:00
1:53 AM,35.1,27.0,72,30.01,10.0,SW,5.8,-,N/A,,Clear,230,2013-01-08 06:53:00
2:53 AM,35.1,27.0,72,30.02,10.0,SW,5.8,-,N/A,,Partly Cloudy,220,2013-01-08 07:53:00
3:53 AM,35.1,27.0,72,30.04,10.0,WSW,3.5,-,N/A,,Overcast,240,2013-01-08 08:53:00
4:53 AM,35.1,28.0,76,30.04,9.0,SSW,3.5,-,N/A,,Overcast,200,2013-01-08 09:53:00
5:53 AM,32.0,27.0,82,30.06,8.0,Calm,Calm,-,N/A,,Scattered Clouds,0,2013-01-08 10:53:00
6:53 AM,33.1,27.0,78,30.07,8.0,Variable,3.5,-,N/A,,Mostly Cloudy,0,2013-01-08 11:53:00
7:53 AM,33.1,27.0,78,30.09,8.0,Calm,Calm,-,N/A,,Mostly Cloudy,0,2013-01-08 12:53:00
9:53 AM,35.1,28.9,78,30.14,6.0,Calm,Calm,-,N/A,,Haze,0,2013-01-08 14:53:00
10:53 AM,37.0,28.9,73,30.14,6.0,SSW,3.5,-,N/A,,Haze,200,2013-01-08 15:53:00
11:53 AM,39.0,30.0,70,30.12,6.0,SSW,8.1,-,N/A,,Haze,200,2013-01-08 16:53:00
12:53 PM,39.9,30.0,68,30.11,7.0,South,8.1,-,N/A,,Partly Cloudy,170,2013-01-08 17:53:00
1:53 PM,41.0,28.9,62,30.09,7.0,SW,6.9,-,N/A,,Scattered Clouds,220,2013-01-08 18:53:00
2:53 PM,42.1,28.9,60,30.10,10.0,South,5.8,-,N/A,,Mostly Cloudy,180,2013-01-08 19:53:00
3:53 PM,42.1,30.0,62,30.10,8.0,SE,5.8,-,N/A,,Mostly Cloudy,140,2013-01-08 20:53:00
4:53 PM,39.0,30.0,70,30.11,7.0,SSE,4.6,-,N/A,,Mostly Cloudy,160,2013-01-08 21:53:00
5:53 PM,37.0,28.9,73,30.09,7.0,Calm,Calm,-,N/A,,Mostly Cloudy,0,2013-01-08 22:53:00
7:53 PM,37.0,28.0,70,30.04,8.0,SSE,5.8,-,N/A,,Scattered Clouds,150,2013-01-09 00:53:00
8:53 PM,36.0,26.1,67,30.02,8.0,Variable,3.5,-,N/A,,Clear,0,2013-01-09 01:53:00
9:53 PM,36.0,25.0,64,30.01,9.0,Calm,Calm,-,N/A,,Clear,0,2013-01-09 02:53:00
10:53 PM,36.0,25.0,64,29.98,9.0,Variable,4.6,-,N/A,,Clear,0,2013-01-09 03:53:00
11:53 PM,35.1,24.1,64,29.98,8.0,Variable,3.5,-,N/A,,Clear,0,2013-01-09 04:53:00